Location: Degersen
(52.2871°N, 9.5716°E)
Time: 23:38:46
(UTC+00:00)

NOSS 2-2 (C) - Pass Details

Date: 20 January 2026
Orbit: 379 x 1692 km, 63.3° (Epoch: 9 February)

Event Time Altitude Azimuth Distance (km) Brightness Sun altitude
Rises 06:00:12 0° 222° (SW) 2,464 6.4 -11.7°
Reaches altitude 10° 06:02:24 10° 222° (SW) 1,498 5.3 -11.4°
Maximum altitude 06:05:34 81° 136° (SE) 397 2.7 -10.9°
Drops below altitude 10° 06:08:33 10° 48° (NE) 1,409 5.8 -10.5°
Sets 06:10:34 0° 47° (NE) 2,297 6.9 -10.2°
